| time (UTC) | temp F | wind direction | speed knots | gust knots | rain 1hr in | rain 24hr in | rain mn in | humidity % | barometer mb |
| 20260506202133 | 71 | 201 | 0.9 | 2.6 | 0.00 | 0.05 | 0.05 | 77 | 1007.1 |
| 20260506201209 | 70 | 191 | 4.3 | 7.0 | 0.00 | 0.05 | 0.05 | 77 | 1007.1 |
| 20260506200705 | 70 | 191 | 4.3 | 7.0 | 0.00 | 0.05 | 0.05 | 77 | 1007.1 |
| 20260506200203 | 70 | 184 | 0.9 | 0.9 | 0.00 | 0.05 | 0.05 | 77 | 1007.4 |
| 20260506195659 | 70 | 168 | 1.7 | 4.3 | 0.00 | 0.05 | 0.05 | 78 | 1007.4 |
| 20260506195155 | 69 | 193 | 5.2 | 7.8 | 0.00 | 0.05 | 0.05 | 79 | 1007.8 |
| 20260506194653 | 69 | 272 | 0.9 | 5.2 | 0.00 | 0.05 | 0.05 | 81 | 1007.7 |
| 20260506194149 | 68 | 169 | 2.6 | 4.3 | 0.00 | 0.05 | 0.05 | 80 | 1007.8 |
| 20260506193647 | 68 | 170 | 1.7 | 5.2 | 0.00 | 0.05 | 0.05 | 82 | 1008.1 |
| 20260506193143 | 68 | 204 | 0.9 | 6.1 | 0.00 | 0.05 | 0.05 | 82 | 1007.7 |
| 20260506192640 | 68 | 193 | 0.9 | 6.1 | 0.00 | 0.05 | 0.05 | 82 | 1007.8 |
| 20260506192136 | 67 | 191 | 1.7 | 2.6 | 0.00 | 0.05 | 0.05 | 84 | 1008.0 |
| 20260506191633 | 67 | 201 | 2.6 | 4.3 | 0.00 | 0.05 | 0.05 | 85 | 1007.8 |
| 20260506191129 | 67 | 202 | 0.9 | 1.7 | 0.00 | 0.05 | 0.05 | 86 | 1008.1 |
| 20260506190627 | 66 | 189 | 0.9 | 2.6 | 0.00 | 0.05 | 0.05 | 88 | 1008.0 |
| 20260506190123 | 65 | 121 | 2.6 | 5.2 | 0.00 | 0.05 | 0.05 | 91 | 1007.8 |
| 20260506185621 | 64 | 154 | 2.6 | 5.2 | 0.00 | 0.05 | 0.05 | 93 | 1008.0 |
| 20260506185117 | 64 | 179 | 2.6 | 5.2 | 0.00 | 0.05 | 0.05 | 93 | 1008.2 |
| 20260506184614 | 64 | 188 | 0.0 | 2.6 | 0.00 | 0.05 | 0.05 | 94 | 1008.3 |
| 20260506184111 | 63 | 164 | 1.7 | 2.6 | 0.00 | 0.05 | 0.05 | 94 | 1008.5 |
| 20260506183608 | 64 | 162 | 0.9 | 2.6 | 0.00 | 0.05 | 0.05 | 95 | 1008.4 |
| 20260506183104 | 63 | 160 | 2.6 | 2.6 | 0.00 | 0.05 | 0.05 | 95 | 1008.4 |
| 20260506182602 | 64 | 198 | 1.7 | 2.6 | 0.00 | 0.05 | 0.05 | 96 | 1008.5 |
| 20260506182058 | 63 | 101 | 0.9 | 6.1 | 0.00 | 0.05 | 0.05 | 96 | 1008.6 |
| 20260506181556 | 63 | 155 | 2.6 | 6.1 | 0.07 | 0.05 | 0.05 | 96 | 1008.5 |
| 20260506181053 | 63 | 193 | 0.9 | 8.7 | 0.12 | 0.05 | 0.05 | 96 | 1008.7 |
| 20260506180550 | 63 | 225 | 2.6 | 4.3 | 0.05 | 0.04 | 0.04 | 95 | 1008.6 |
| 20260506180046 | 63 | 184 | 1.7 | 5.2 | 0.07 | 0.03 | 0.03 | 94 | 1009.1 |
| 20260506175543 | 63 | 195 | 0.9 | 4.3 | 0.07 | 0.03 | 0.03 | 93 | 1008.9 |
| 20260506175039 | 64 | 223 | 5.2 | 7.8 | 0.05 | 0.02 | 0.02 | 92 | 1008.7 |
| 20260506174538 | 65 | 191 | 4.3 | 8.7 | 0.12 | 0.02 | 0.02 | 89 | 1008.9 |
| 20260506174033 | 67 | 140 | 0.9 | 4.3 | 0.00 | 0.00 | 0.00 | 83 | 1009.0 |
| 20260506173532 | 68 | 183 | 2.6 | 4.3 | 0.00 | 0.00 | 0.00 | 80 | 1008.7 |
| 20260506173028 | 70 | 283 | 4.3 | 6.1 | 0.00 | 0.00 | 0.00 | 73 | 1008.8 |
| 20260506172526 | 70 | 166 | 0.0 | 2.6 | 0.00 | 0.00 | 0.00 | 73 | 1008.9 |
| 20260506172022 | 70 | 220 | 4.3 | 6.1 | 0.00 | 0.00 | 0.00 | 71 | 1008.8 |
| 20260506171519 | 71 | 200 | 0.9 | 1.7 | 0.00 | 0.00 | 0.00 | 71 | 1008.9 |
| 20260506171017 | 71 | 70 | 0.9 | 1.7 | 0.00 | 0.00 | 0.00 | 72 | 1008.8 |
| 20260506170515 | 72 | 167 | 7.8 | 13.0 | 0.00 | 0.00 | 0.00 | 69 | 1009.0 |
| 20260506170012 | 72 | 194 | 1.7 | 2.6 | 0.00 | 0.00 | 0.00 | 69 | 1008.7 |
| 20260506165510 | 73 | 169 | 1.7 | 1.7 | 0.00 | 0.00 | 0.00 | 66 | 1008.8 |
| 20260506165005 | 72 | 196 | 1.7 | 8.7 | 0.00 | 0.00 | 0.00 | 66 | 1008.9 |
| 20260506164502 | 73 | 195 | 2.6 | 7.0 | 0.00 | 0.00 | 0.00 | 65 | 1009.0 |
| 20260506164000 | 73 | 197 | 5.2 | 7.0 | 0.00 | 0.00 | 0.00 | 65 | 1009.1 |
| 20260506163455 | 73 | 192 | 1.7 | 5.2 | 0.00 | 0.00 | 0.00 | 66 | 1009.6 |
| 20260506162950 | 73 | 188 | 1.7 | 1.7 | 0.00 | 0.00 | 0.00 | 65 | 1009.4 |
| 20260506162448 | 73 | 196 | 0.9 | 2.6 | 0.00 | 0.00 | 0.00 | 66 | 1009.8 |
| 20260506161945 | 73 | 195 | 0.9 | 5.2 | 0.00 | 0.00 | 0.00 | 66 | 1009.5 |
| 20260506161443 | 73 | 171 | 1.7 | 12.2 | 0.00 | 0.00 | 0.00 | 66 | 1010.1 |
| 20260506160940 | 73 | 152 | 3.5 | 11.3 | 0.00 | 0.00 | 0.00 | 65 | 1010.0 |
| 20260506160438 | 73 | 214 | 2.6 | 6.1 | 0.00 | 0.00 | 0.00 | 65 | 1010.0 |
| 20260506155935 | 72 | 150 | 0.9 | 1.7 | 0.00 | 0.00 | 0.00 | 66 | 1009.9 |
| 20260506155433 | 72 | 194 | 1.7 | 2.6 | 0.00 | 0.00 | 0.00 | 67 | 1009.9 |
| 20260506153559 | 72 | 194 | 2.6 | 2.6 | 0.00 | 0.00 | 0.00 | 66 | 1009.9 |
| 20260506153057 | 72 | 264 | 3.5 | 6.1 | 0.00 | 0.00 | 0.00 | 65 | 1010.2 |
| 20260506152553 | 72 | 202 | 3.5 | 7.0 | 0.00 | 0.00 | 0.00 | 65 | 1010.3 |
| 20260506152052 | 72 | 229 | 1.7 | 1.7 | 0.00 | 0.00 | 0.00 | 65 | 1010.2 |
| 20260506151549 | 73 | 240 | 4.3 | 9.6 | 0.00 | 0.00 | 0.00 | 64 | 1010.2 |
| 20260506151046 | 73 | 153 | 4.3 | 7.0 | 0.00 | 0.00 | 0.00 | 64 | 1010.3 |
| 20260506150542 | 72 | 195 | 3.5 | 5.2 | 0.00 | 0.00 | 0.00 | 64 | 1010.1 |
| 20260506150040 | 72 | 214 | 1.7 | 7.0 | 0.00 | 0.00 | 0.00 | 65 | 1010.1 |
| 20260506145536 | 73 | 261 | 7.8 | 8.7 | 0.00 | 0.00 | 0.00 | 63 | 1010.2 |
| 20260506145034 | 72 | 176 | 2.6 | 7.8 | 0.00 | 0.00 | 0.00 | 64 | 1010.5 |
| 20260506144530 | 72 | 79 | 3.5 | 6.1 | 0.00 | 0.00 | 0.00 | 64 | 1010.2 |
| 20260506144028 | 72 | 170 | 1.7 | 7.0 | 0.00 | 0.00 | 0.00 | 65 | 1010.4 |
| 20260506143525 | 72 | 161 | 4.3 | 7.0 | 0.00 | 0.00 | 0.00 | 65 | 1010.1 |
| 20260506143024 | 71 | 200 | 0.9 | 4.3 | 0.00 | 0.00 | 0.00 | 66 | 1010.3 |
| 20260506142521 | 71 | 175 | 3.5 | 8.7 | 0.00 | 0.00 | 0.00 | 65 | 1010.5 |
| 20260506142019 | 72 | 155 | 2.6 | 6.1 | 0.00 | 0.00 | 0.00 | 65 | 1010.5 |
| 20260506141517 | 73 | 185 | 4.3 | 6.1 | 0.00 | 0.00 | 0.00 | 66 | 1010.8 |
| 20260506141015 | 72 | 186 | 1.7 | 4.3 | 0.00 | 0.00 | 0.00 | 64 | 1010.5 |
| 20260506140512 | 72 | 69 | 2.6 | 4.3 | 0.00 | 0.00 | 0.00 | 65 | 1010.5 |
| 20260506140009 | 71 | 202 | 1.7 | 4.3 | 0.00 | 0.00 | 0.00 | 66 | 1010.6 |
| 20260506135506 | 71 | 181 | 1.7 | 5.2 | 0.00 | 0.00 | 0.00 | 66 | 1010.6 |
| 20260506135002 | 70 | 214 | 4.3 | 6.1 | 0.00 | 0.00 | 0.00 | 66 | 1010.3 |
| 20260506134458 | 69 | 185 | 1.7 | 7.8 | 0.00 | 0.00 | 0.00 | 68 | 1010.5 |
| 20260506133954 | 69 | 204 | 1.7 | 4.3 | 0.00 | 0.00 | 0.00 | 68 | 1010.5 |
| 20260506133411 | 70 | 125 | 2.6 | 7.8 | 0.00 | 0.00 | 0.00 | 66 | 1010.6 |
| 20260506132908 | 70 | 125 | 2.6 | 7.8 | 0.00 | 0.00 | 0.00 | 66 | 1010.6 |
| 20260506132405 | 71 | 179 | 0.9 | 0.9 | 0.00 | 0.00 | 0.00 | 66 | 1010.6 |
| 20260506131903 | 70 | 184 | 0.9 | 5.2 | 0.00 | 0.00 | 0.00 | 67 | 1010.8 |
| 20260506131359 | 70 | 186 | 1.7 | 4.3 | 0.00 | 0.00 | 0.00 | 67 | 1010.9 |
| 20260506130856 | 71 | 165 | 1.7 | 2.6 | 0.00 | 0.00 | 0.00 | 67 | 1011.1 |
| 20260506130352 | 71 | 251 | 7.8 | 9.6 | 0.00 | 0.00 | 0.00 | 65 | 1010.8 |
| 20260506125851 | 71 | 196 | 2.6 | 5.2 | 0.00 | 0.00 | 0.00 | 65 | 1010.8 |
| 20260506125349 | 71 | 140 | 3.5 | 4.3 | 0.00 | 0.00 | 0.00 | 67 | 1010.8 |
| 20260506124847 | 71 | 221 | 0.9 | 1.7 | 0.00 | 0.00 | 0.00 | 68 | 1010.8 |
| 20260506124343 | 70 | 220 | 4.3 | 6.1 | 0.00 | 0.00 | 0.00 | 69 | 1010.9 |
| 20260506123841 | 70 | 185 | 1.7 | 2.6 | 0.00 | 0.00 | 0.00 | 68 | 1010.8 |
| 20260506123339 | 70 | 175 | 3.5 | 5.2 | 0.00 | 0.00 | 0.00 | 69 | 1011.0 |
| 20260506122836 | 69 | 186 | 0.9 | 0.9 | 0.00 | 0.00 | 0.00 | 70 | 1010.9 |
| 20260506122333 | 69 | 199 | 3.5 | 11.3 | 0.00 | 0.00 | 0.00 | 70 | 1010.8 |
| 20260506121831 | 68 | 128 | 0.9 | 5.2 | 0.00 | 0.00 | 0.00 | 71 | 1011.1 |
| 20260506121328 | 67 | 186 | 4.3 | 6.1 | 0.00 | 0.00 | 0.00 | 73 | 1011.0 |
| 20260506120825 | 67 | 187 | 0.9 | 1.7 | 0.00 | 0.00 | 0.00 | 74 | 1010.9 |
| 20260506120323 | 68 | 195 | 0.9 | 0.9 | 0.00 | 0.00 | 0.00 | 73 | 1010.9 |
| 20260506115820 | 67 | 132 | 2.6 | 4.3 | 0.00 | 0.00 | 0.00 | 74 | 1010.8 |
| 20260506115318 | 65 | 179 | 0.9 | 1.7 | 0.00 | 0.00 | 0.00 | 78 | 1011.0 |
| 20260506114816 | 65 | 179 | 0.9 | 1.7 | 0.00 | 0.00 | 0.00 | 78 | 1010.8 |
| 20260506114314 | 65 | 205 | 1.7 | 5.2 | 0.00 | 0.00 | 0.00 | 78 | 1010.7 |
| 20260506113812 | 64 | 184 | 4.3 | 5.2 | 0.00 | 0.00 | 0.00 | 79 | 1010.8 |
| 20260506113309 | 64 | 168 | 1.7 | 1.7 | 0.00 | 0.00 | 0.00 | 81 | 1011.2 |
| 20260506112805 | 63 | 175 | 0.9 | 2.6 | 0.00 | 0.00 | 0.00 | 82 | 1011.0 |
| 20260506112305 | 63 | 192 | 0.9 | 1.7 | 0.00 | 0.00 | 0.00 | 83 | 1010.9 |
| 20260506111800 | 62 | 172 | 0.9 | 4.3 | 0.00 | 0.00 | 0.00 | 83 | 1010.9 |
| 20260506111258 | 62 | 193 | 0.9 | 2.6 | 0.00 | 0.00 | 0.00 | 84 | 1011.0 |
| 20260506110755 | 62 | 202 | 0.9 | 1.7 | 0.00 | 0.00 | 0.00 | 85 | 1011.0 |
| 20260506110252 | 62 | 208 | 1.7 | 1.7 | 0.00 | 0.00 | 0.00 | 85 | 1010.9 |
| 20260506105749 | 62 | 212 | 2.6 | 2.6 | 0.00 | 0.00 | 0.00 | 85 | 1011.0 |
| 20260506105246 | 61 | 159 | 0.9 | 1.7 | 0.00 | 0.00 | 0.00 | 86 | 1010.8 |
| 20260506104743 | 61 | 189 | 0.0 | 0.9 | 0.00 | 0.00 | 0.00 | 86 | 1010.8 |
| 20260506104241 | 60 | 181 | 0.9 | 0.9 | 0.00 | 0.00 | 0.00 | 86 | 1010.7 |
| 20260506103738 | 60 | 179 | 0.9 | 0.9 | 0.00 | 0.00 | 0.00 | 87 | 1011.0 |
| 20260506103235 | 60 | 152 | 2.6 | 4.3 | 0.00 | 0.00 | 0.00 | 87 | 1010.8 |
| 20260506102733 | 60 | 176 | 0.9 | 0.9 | 0.00 | 0.00 | 0.00 | 88 | 1010.6 |
| 20260506102231 | 60 | 187 | 0.0 | 0.0 | 0.00 | 0.00 | 0.00 | 88 | 1010.6 |
| 20260506101727 | 60 | 202 | 2.6 | 2.6 | 0.00 | 0.00 | 0.00 | 88 | 1010.7 |
| 20260506101224 | 60 | 177 | 2.6 | 2.6 | 0.00 | 0.00 | 0.00 | 88 | 1010.7 |
| 20260506100722 | 60 | 173 | 2.6 | 4.3 | 0.00 | 0.00 | 0.00 | 89 | 1010.5 |
| 20260506100220 | 60 | 191 | 0.0 | 0.0 | 0.00 | 0.00 | 0.00 | 89 | 1010.5 |
| 20260506095718 | 60 | 187 | 0.9 | 1.7 | 0.00 | 0.00 | 0.00 | 89 | 1010.9 |
| 20260506095215 | 60 | 204 | 0.9 | 1.7 | 0.00 | 0.00 | 0.00 | 89 | 1010.5 |
| 20260506094712 | 60 | 184 | 0.9 | 2.6 | 0.00 | 0.00 | 0.00 | 90 | 1010.4 |
| 20260506094210 | 60 | 192 | 0.0 | 0.9 | 0.00 | 0.00 | 0.00 | 89 | 1010.6 |
| 20260506093708 | 60 | 185 | 0.9 | 2.6 | 0.00 | 0.00 | 0.00 | 89 | 1010.6 |
| 20260506093205 | 60 | 182 | 0.0 | 1.7 | 0.00 | 0.00 | 0.00 | 90 | 1010.7 |
| 20260506092702 | 60 | 191 | 0.9 | 1.7 | 0.00 | 0.00 | 0.00 | 90 | 1010.7 |
| 20260506092200 | 60 | 177 | 0.9 | 1.7 | 0.00 | 0.00 | 0.00 | 90 | 1010.8 |
| 20260506091658 | 60 | 197 | 0.0 | 1.7 | 0.00 | 0.00 | 0.00 | 90 | 1010.9 |
| 20260506091155 | 60 | 184 | 0.0 | 2.6 | 0.00 | 0.00 | 0.00 | 90 | 1010.5 |
| 20260506090653 | 60 | 182 | 1.7 | 2.6 | 0.00 | 0.00 | 0.00 | 89 | 1010.8 |
| 20260506090149 | 60 | 185 | 0.9 | 0.9 | 0.00 | 0.00 | 0.00 | 89 | 1010.6 |
| 20260506085646 | 60 | 157 | 1.7 | 2.6 | 0.00 | 0.00 | 0.00 | 90 | 1010.9 |
| 20260506085142 | 60 | 192 | 0.0 | 0.9 | 0.00 | 0.00 | 0.00 | 89 | 1010.7 |
| 20260506084639 | 60 | 191 | 0.0 | 1.7 | 0.00 | 0.00 | 0.00 | 90 | 1010.9 |
| 20260506084136 | 60 | 186 | 0.9 | 1.7 | 0.00 | 0.00 | 0.00 | 90 | 1011.0 |
| 20260506083632 | 60 | 183 | 0.9 | 1.7 | 0.00 | 0.00 | 0.00 | 90 | 1011.3 |
| 20260506083130 | 60 | 172 | 0.9 | 0.9 | 0.00 | 0.00 | 0.00 | 89 | 1011.1 |
| 20260506082627 | 60 | 177 | 1.7 | 2.6 | 0.00 | 0.00 | 0.00 | 90 | 1011.1 |
| 20260506082122 | 60 | 176 | 0.9 | 1.7 | 0.00 | 0.00 | 0.00 | 90 | 1011.0 |
| 20260506081621 | 60 | 194 | 0.9 | 0.9 | 0.00 | 0.00 | 0.00 | 90 | 1011.0 |
| 20260506081118 | 60 | 191 | 1.7 | 2.6 | 0.00 | 0.00 | 0.00 | 90 | 1011.0 |
| 20260506080616 | 60 | 190 | 0.0 | 1.7 | 0.00 | 0.00 | 0.00 | 90 | 1011.1 |
| 20260506080112 | 60 | 183 | 0.9 | 1.7 | 0.00 | 0.00 | 0.00 | 90 | 1010.8 |
| 20260506073056 | 60 | 169 | 0.0 | 0.9 | 0.00 | 0.00 | 0.00 | 89 | 1011.1 |
| 20260506072552 | 60 | 189 | 0.9 | 1.7 | 0.00 | 0.00 | 0.00 | 89 | 1011.2 |
| 20260506072051 | 60 | 184 | 0.0 | 0.0 | 0.00 | 0.00 | 0.00 | 89 | 1011.0 |
| 20260506071548 | 61 | 186 | 0.0 | 0.0 | 0.00 | 0.00 | 0.00 | 88 | 1011.1 |
| 20260506071045 | 61 | 184 | 0.0 | 0.9 | 0.00 | 0.00 | 0.00 | 88 | 1011.4 |
| 20260506070542 | 61 | 188 | 0.9 | 1.7 | 0.00 | 0.00 | 0.00 | 88 | 1011.4 |
| 20260506062016 | 62 | 185 | 0.0 | 0.9 | 0.00 | 0.00 | 0.00 | 85 | 1011.3 |
| 20260506061512 | 63 | 185 | 0.9 | 1.7 | 0.00 | 0.00 | 0.00 | 84 | 1011.3 |
| 20260506061010 | 63 | 165 | 1.7 | 1.7 | 0.00 | 0.00 | 0.00 | 84 | 1011.5 |
| 20260506060508 | 63 | 182 | 0.9 | 0.9 | 0.00 | 0.00 | 0.00 | 84 | 1011.1 |
| 20260506050937 | 63 | 181 | 0.9 | 1.7 | 0.00 | 0.00 | 0.00 | 83 | 1011.7 |
| 20260506050435 | 63 | 160 | 1.7 | 2.6 | 0.00 | 0.00 | 0.00 | 83 | 1011.5 |
| 20260506044925 | 63 | 267 | 2.6 | 7.0 | 0.00 | 0.00 | 0.00 | 83 | 1011.7 |
| 20260506044424 | 63 | 172 | 0.0 | 0.9 | 0.00 | 0.00 | 0.00 | 83 | 1011.7 |
| 20260506043920 | 63 | 194 | 0.0 | 0.9 | 0.00 | 0.00 | 0.00 | 83 | 1011.8 |
| 20260506043417 | 63 | 182 | 1.7 | 2.6 | 0.00 | 0.00 | 0.00 | 83 | 1011.7 |
| 20260506042915 | 63 | 175 | 0.9 | 0.9 | 0.00 | 0.00 | 0.00 | 82 | 1011.7 |
| 20260506042414 | 63 | 175 | 0.9 | 0.9 | 0.00 | 0.00 | 0.00 | 82 | 1011.7 |
| 20260506041912 | 64 | 181 | 0.9 | 0.9 | 0.00 | 0.00 | 0.00 | 81 | 1011.6 |
| 20260506041409 | 64 | 181 | 0.9 | 0.9 | 0.00 | 0.00 | 0.00 | 81 | 1011.7 |
| 20260506040906 | 64 | 188 | 0.0 | 0.9 | 0.00 | 0.00 | 0.00 | 81 | 1011.8 |
| 20260506040404 | 64 | 188 | 0.9 | 0.9 | 0.00 | 0.00 | 0.00 | 81 | 1011.7 |
| 20260506035859 | 64 | 95 | 2.6 | 6.1 | 0.00 | 0.00 | 0.00 | 81 | 1011.6 |
| 20260506035357 | 64 | 186 | 0.9 | 0.9 | 0.00 | 0.00 | 0.00 | 80 | 1011.6 |
| 20260506034854 | 65 | 166 | 0.9 | 0.9 | 0.00 | 0.00 | 0.00 | 79 | 1011.6 |
| 20260506034351 | 65 | 182 | 1.7 | 1.7 | 0.00 | 0.00 | 0.00 | 79 | 1011.6 |
| 20260506033848 | 65 | 183 | 1.7 | 4.3 | 0.00 | 0.00 | 0.00 | 78 | 1011.6 |
| 20260506033345 | 65 | 186 | 0.9 | 0.9 | 0.00 | 0.00 | 0.00 | 78 | 1011.5 |
| 20260506032842 | 65 | 183 | 1.7 | 1.7 | 0.00 | 0.00 | 0.00 | 77 | 1011.7 |
| 20260506032339 | 65 | 193 | 1.7 | 2.6 | 0.00 | 0.00 | 0.00 | 78 | 1011.7 |
| 20260506031836 | 66 | 183 | 1.7 | 1.7 | 0.00 | 0.00 | 0.00 | 77 | 1011.8 |
| 20260506031333 | 65 | 150 | 1.7 | 4.3 | 0.00 | 0.00 | 0.00 | 77 | 1011.7 |
| 20260506030831 | 65 | 193 | 2.6 | 2.6 | 0.00 | 0.00 | 0.00 | 77 | 1011.8 |
| 20260506030329 | 65 | 177 | 2.6 | 2.6 | 0.00 | 0.00 | 0.00 | 77 | 1011.8 |
| 20260506025825 | 65 | 172 | 0.9 | 1.7 | 0.00 | 0.00 | 0.00 | 77 | 1011.7 |
| 20260506025321 | 65 | 183 | 0.9 | 2.6 | 0.00 | 0.00 | 0.00 | 77 | 1011.9 |
| 20260506024819 | 65 | 168 | 0.9 | 0.9 | 0.00 | 0.00 | 0.00 | 78 | 1011.8 |
| 20260506024315 | 65 | 193 | 0.9 | 0.9 | 0.00 | 0.00 | 0.00 | 77 | 1011.9 |
| 20260506023812 | 66 | 157 | 0.9 | 0.9 | 0.00 | 0.00 | 0.00 | 76 | 1012.0 |
| 20260506023309 | 66 | 157 | 0.9 | 1.7 | 0.00 | 0.00 | 0.00 | 76 | 1011.7 |
| 20260506022805 | 66 | 195 | 0.9 | 1.7 | 0.00 | 0.00 | 0.00 | 76 | 1011.8 |
| 20260506022305 | 66 | 187 | 0.0 | 0.0 | 0.00 | 0.00 | 0.00 | 77 | 1011.8 |
| 20260506021801 | 66 | 173 | 0.9 | 0.9 | 0.00 | 0.00 | 0.00 | 76 | 1011.9 |
| 20260506021258 | 66 | 163 | 1.7 | 4.3 | 0.00 | 0.00 | 0.00 | 76 | 1011.9 |
| 20260506020754 | 66 | 189 | 0.9 | 4.3 | 0.00 | 0.00 | 0.00 | 76 | 1011.8 |
| 20260506020252 | 66 | 184 | 0.9 | 1.7 | 0.00 | 0.00 | 0.00 | 76 | 1011.9 |
| 20260506015750 | 66 | 153 | 0.9 | 1.7 | 0.00 | 0.00 | 0.00 | 76 | 1011.7 |
| 20260506015247 | 66 | 170 | 0.9 | 2.6 | 0.00 | 0.00 | 0.00 | 76 | 1011.8 |
| 20260506014744 | 66 | 170 | 0.9 | 2.6 | 0.00 | 0.00 | 0.00 | 76 | 1011.8 |
| 20260506014240 | 66 | 188 | 0.9 | 0.9 | 0.00 | 0.00 | 0.00 | 76 | 1011.7 |
| 20260506013737 | 66 | 192 | 0.9 | 6.1 | 0.00 | 0.00 | 0.00 | 76 | 1011.5 |
| 20260506013235 | 66 | 191 | 3.5 | 4.3 | 0.00 | 0.00 | 0.00 | 76 | 1011.7 |
| 20260506012731 | 66 | 189 | 0.0 | 1.7 | 0.00 | 0.00 | 0.00 | 76 | 1011.5 |
| 20260506012228 | 65 | 184 | 2.6 | 4.3 | 0.00 | 0.00 | 0.00 | 76 | 1011.5 |
| 20260506011725 | 66 | 148 | 2.6 | 2.6 | 0.00 | 0.00 | 0.00 | 75 | 1011.5 |
| 20260506011221 | 66 | 192 | 4.3 | 7.0 | 0.00 | 0.00 | 0.00 | 73 | 1011.4 |
| 20260506010720 | 66 | 192 | 4.3 | 7.0 | 0.00 | 0.00 | 0.00 | 73 | 1011.2 |
| 20260506010217 | 66 | 156 | 0.9 | 1.7 | 0.00 | 0.00 | 0.00 | 73 | 1011.2 |
| 20260506005714 | 66 | 170 | 0.0 | 1.7 | 0.00 | 0.00 | 0.00 | 73 | 1011.3 |
| 20260506005211 | 66 | 185 | 0.0 | 0.9 | 0.00 | 0.00 | 0.00 | 72 | 1011.2 |
| 20260506004706 | 67 | 181 | 2.6 | 2.6 | 0.00 | 0.00 | 0.00 | 71 | 1011.1 |
| 20260506004204 | 67 | 187 | 0.9 | 0.9 | 0.00 | 0.00 | 0.00 | 70 | 1011.1 |
| 20260506003700 | 67 | 188 | 3.5 | 6.1 | 0.00 | 0.00 | 0.00 | 69 | 1011.1 |
| 20260506003157 | 68 | 201 | 1.7 | 2.6 | 0.00 | 0.00 | 0.00 | 69 | 1011.0 |
| 20260506002652 | 67 | 138 | 3.5 | 5.2 | 0.00 | 0.00 | 0.00 | 68 | 1011.0 |
| 20260506002149 | 67 | 171 | 1.7 | 2.6 | 0.00 | 0.00 | 0.00 | 69 | 1011.0 |
| 20260506001644 | 68 | 139 | 1.7 | 2.6 | 0.00 | 0.00 | 0.00 | 68 | 1011.2 |
| 20260506001142 | 68 | 136 | 6.1 | 7.0 | 0.00 | 0.00 | 0.00 | 67 | 1010.9 |
| 20260506000639 | 68 | 136 | 6.1 | 7.0 | 0.00 | 0.00 | 0.00 | 67 | 1010.9 |
| 20260506000136 | 69 | 141 | 2.6 | 4.3 | 0.00 | 0.00 | 0.00 | 66 | 1010.9 |
| 20260505235634 | 69 | 141 | 2.6 | 4.3 | 0.00 | 0.00 | 0.00 | 66 | 1010.9 |
| 20260505235131 | 69 | 184 | 0.0 | 1.7 | 0.00 | 0.00 | 0.00 | 66 | 1010.9 |
| 20260505234628 | 69 | 195 | 0.9 | 0.9 | 0.00 | 0.00 | 0.00 | 65 | 1010.9 |
| 20260505234125 | 70 | 187 | 1.7 | 2.6 | 0.00 | 0.00 | 0.00 | 63 | 1010.6 |
| 20260505233622 | 70 | 178 | 1.7 | 1.7 | 0.00 | 0.00 | 0.00 | 63 | 1010.7 |
| 20260505233120 | 70 | 219 | 2.6 | 2.6 | 0.00 | 0.00 | 0.00 | 62 | 1010.8 |
| 20260505232617 | 71 | 63 | 2.6 | 2.6 | 0.00 | 0.00 | 0.00 | 62 | 1010.4 |
| 20260505232115 | 71 | 180 | 0.9 | 1.7 | 0.00 | 0.00 | 0.00 | 61 | 1010.6 |
| 20260505231611 | 71 | 113 | 2.6 | 2.6 | 0.00 | 0.00 | 0.00 | 61 | 1010.5 |
| 20260505231110 | 72 | 194 | 0.0 | 0.9 | 0.00 | 0.00 | 0.00 | 61 | 1010.5 |
| 20260505230608 | 72 | 202 | 3.5 | 5.2 | 0.00 | 0.00 | 0.00 | 60 | 1010.4 |
| 20260505225600 | 72 | 194 | 1.7 | 2.6 | 0.00 | 0.00 | 0.00 | 60 | 1010.3 |
| 20260505225056 | 72 | 190 | 0.0 | 2.6 | 0.00 | 0.00 | 0.00 | 60 | 1010.3 |
| 20260505224553 | 73 | 187 | 0.0 | 2.6 | 0.00 | 0.00 | 0.00 | 59 | 1010.5 |
| 20260505224051 | 73 | 173 | 2.6 | 2.6 | 0.00 | 0.00 | 0.00 | 59 | 1010.4 |
| 20260505223548 | 74 | 162 | 3.5 | 4.3 | 0.00 | 0.00 | 0.00 | 57 | 1010.3 |
| 20260505223044 | 74 | 76 | 0.9 | 5.2 | 0.00 | 0.00 | 0.00 | 56 | 1010.0 |
| 20260505222540 | 75 | 177 | 1.7 | 2.6 | 0.00 | 0.00 | 0.00 | 55 | 1010.2 |
| 20260505222037 | 75 | 200 | 0.9 | 4.3 | 0.00 | 0.00 | 0.00 | 54 | 1010.3 |
| 20260505221534 | 75 | 188 | 1.7 | 2.6 | 0.00 | 0.00 | 0.00 | 55 | 1010.2 |
| 20260505221030 | 76 | 163 | 2.6 | 5.2 | 0.00 | 0.00 | 0.00 | 55 | 1010.2 |
| 20260505220527 | 76 | 293 | 5.2 | 6.1 | 0.00 | 0.00 | 0.00 | 54 | 1010.2 |
| 20260505220025 | 76 | 120 | 0.9 | 1.7 | 0.00 | 0.00 | 0.00 | 54 | 1010.0 |
| 20260505215523 | 76 | 165 | 1.7 | 7.0 | 0.00 | 0.00 | 0.00 | 54 | 1009.9 |
| 20260505215021 | 77 | 154 | 0.9 | 4.3 | 0.00 | 0.00 | 0.00 | 53 | 1009.9 |
| 20260505214519 | 77 | 195 | 3.5 | 7.0 | 0.00 | 0.00 | 0.00 | 52 | 1009.7 |
| 20260505214015 | 79 | 153 | 3.5 | 6.1 | 0.00 | 0.00 | 0.00 | 50 | 1009.8 |
| 20260505213513 | 79 | 175 | 5.2 | 7.0 | 0.00 | 0.00 | 0.00 | 48 | 1009.4 |
| 20260505213009 | 78 | 186 | 1.7 | 6.1 | 0.00 | 0.00 | 0.00 | 51 | 1009.6 |
| 20260505212506 | 78 | 171 | 1.7 | 1.7 | 0.00 | 0.00 | 0.00 | 51 | 1009.4 |
| 20260505212003 | 79 | 67 | 1.7 | 7.8 | 0.00 | 0.00 | 0.00 | 50 | 1009.2 |
| 20260505211500 | 78 | 167 | 1.7 | 7.0 | 0.00 | 0.00 | 0.00 | 51 | 1009.4 |
| 20260505210956 | 78 | 179 | 4.3 | 6.1 | 0.00 | 0.00 | 0.00 | 50 | 1009.4 |
| 20260505210453 | 79 | 185 | 1.7 | 4.3 | 0.00 | 0.00 | 0.00 | 50 | 1009.4 |
| 20260505205950 | 78 | 174 | 3.5 | 6.1 | 0.00 | 0.00 | 0.00 | 50 | 1009.3 |
| 20260505205449 | 80 | 197 | 2.6 | 6.1 | 0.00 | 0.00 | 0.00 | 50 | 1009.4 |
| 20260505204945 | 80 | 197 | 2.6 | 6.1 | 0.00 | 0.00 | 0.00 | 50 | 1009.4 |
| 20260505204443 | 80 | 89 | 3.5 | 7.0 | 0.00 | 0.00 | 0.00 | 48 | 1009.2 |
| 20260505203940 | 82 | 81 | 4.3 | 7.0 | 0.00 | 0.00 | 0.00 | 46 | 1009.3 |
| 20260505203436 | 81 | 179 | 1.7 | 4.3 | 0.00 | 0.00 | 0.00 | 47 | 1009.2 |
| 20260505202933 | 82 | 164 | 2.6 | 4.3 | 0.00 | 0.00 | 0.00 | 46 | 1009.3 |
| 20260505202429 | 82 | 191 | 2.6 | 5.2 | 0.00 | 0.00 | 0.00 | 48 | 1009.2 |